Wetterdaten: Woche 09.12.19 - 15.12.19 (KW50)
Datum Zeit Temp. Aussen Temp. o. S. Temp +5cm Feuchte Auss Luftdruck Regen Sonnenschein Regendauer Solar Windben Empfang
09.12.2019 00:00 6,9 C 6,1 C 5,2 C 88 % 999,5 hPa 0,0 l/m 0,00 h 0,00 h 0 W/m 22,2 km/h (4 Bft) 99,39 %
09.12.2019 01:00 7,2 C 6,6 C 6,0 C 87 % 999,0 hPa 0,0 l/m 0,00 h 0,07 h 0 W/m 26,5 km/h (4 Bft) 97,15 %
09.12.2019 02:00 7,7 C 7,2 C 6,6 C 85 % 998,6 hPa 0,0 l/m 0,00 h 0,00 h 0 W/m 25,8 km/h (4 Bft) 96,66 %
09.12.2019 03:00 7,7 C 7,1 C 6,4 C 83 % 997,8 hPa 0,0 l/m 0,00 h 0,00 h 0 W/m 26,5 km/h (4 Bft) 99,43 %
09.12.2019 04:00 7,8 C 7,1 C 6,5 C 82 % 996,9 hPa 0,0 l/m 0,00 h 0,00 h 0 W/m 26,7 km/h (4 Bft) 96,48 %
09.12.2019 05:00 7,6 C 6,7 C 6,1 C 82 % 996,2 hPa 0,0 l/m 0,00 h 0,00 h 0 W/m 24,0 km/h (4 Bft) 96,68 %
09.12.2019 06:00 7,5 C 6,1 C 5,5 C 85 % 995,5 hPa 0,0 l/m 0,00 h 0,57 h 0 W/m 27,3 km/h (4 Bft) 97,13 %
09.12.2019 07:00 7,2 C 5,9 C 5,4 C 88 % 994,9 hPa 0,2 l/m 0,00 h 0,73 h 0 W/m 34,2 km/h (5 Bft) 95,70 %
09.12.2019 08:00 7,3 C 5,8 C 5,3 C 89 % 994,9 hPa 0,4 l/m 0,00 h 0,77 h 0 W/m 33,0 km/h (5 Bft) 99,66 %
09.12.2019 09:00 6,7 C 4,9 C 4,6 C 92 % 995,9 hPa 2,8 l/m 0,00 h 1,00 h 9 W/m 25,4 km/h (4 Bft) 95,73 %
09.12.2019 10:00 6,4 C 5,4 C 4,9 C 96 % 997,3 hPa 2,8 l/m 0,00 h 1,00 h 13 W/m 16,5 km/h (3 Bft) 97,02 %
09.12.2019 11:00 6,5 C 5,7 C 5,2 C 97 % 998,6 hPa 0,6 l/m 0,00 h 0,30 h 52 W/m 11,3 km/h (2 Bft) 99,73 %
09.12.2019 12:00 7,0 C 6,8 C 6,0 C 98 % 999,5 hPa 0,0 l/m 0,17 h 0,00 h 116 W/m 12,8 km/h (3 Bft) 95,44 %
09.12.2019 13:00 7,2 C 6,7 C 5,8 C 97 % 1000,3 hPa 0,4 l/m 0,30 h 0,50 h 119 W/m 11,2 km/h (2 Bft) 97,37 %
09.12.2019 14:00 7,3 C 6,5 C 6,0 C 97 % 1001,4 hPa 0,0 l/m 0,20 h 0,00 h 78 W/m 7,3 km/h (2 Bft) 99,22 %
09.12.2019 15:00 7,2 C 6,1 C 5,6 C 96 % 1002,8 hPa 0,2 l/m 0,00 h 0,30 h 11 W/m 1,5 km/h (1 Bft) 95,50 %
09.12.2019 16:00 7,0 C 5,7 C 5,4 C 97 % 1004,8 hPa 0,6 l/m 0,00 h 0,47 h 0 W/m 8,9 km/h (2 Bft) 97,51 %
09.12.2019 17:00 6,5 C 5,4 C 5,0 C 98 % 1007,6 hPa 0,4 l/m 0,00 h 0,60 h 0 W/m 23,9 km/h (4 Bft) 98,36 %
09.12.2019 18:00 6,1 C 5,0 C 4,5 C 98 % 1010,6 hPa 0,0 l/m 0,00 h 0,43 h 0 W/m 18,0 km/h (3 Bft) 97,02 %
09.12.2019 19:00 5,4 C 4,1 C 3,7 C 97 % 1012,9 hPa 0,0 l/m 0,00 h 0,00 h 0 W/m 17,2 km/h (3 Bft) 97,51 %
09.12.2019 20:00 4,7 C 3,3 C 3,0 C 96 % 1015,1 hPa 0,0 l/m 0,00 h 0,00 h 0 W/m 15,2 km/h (3 Bft) 96,44 %
09.12.2019 21:00 4,2 C 2,8 C 2,4 C 94 % 1017,0 hPa 0,0 l/m 0,00 h 0,00 h 0 W/m 9,7 km/h (2 Bft) 98,79 %
09.12.2019 22:00 3,6 C 2,2 C 1,8 C 94 % 1018,6 hPa 0,0 l/m 0,00 h 0,00 h 0 W/m 6,7 km/h (2 Bft) 97,00 %
09.12.2019 23:00 3,5 C 2,6 C 2,2 C 95 % 1020,1 hPa 0,0 l/m 0,00 h 0,00 h 0 W/m 6,1 km/h (2 Bft) 94,45 %
10.12.2019 00:00 3,0 C 2,0 C 1,6 C 95 % 1021,3 hPa 0,0 l/m 0,00 h 0,00 h 0 W/m 6,2 km/h (2 Bft) 99,10 %
10.12.2019 01:00 2,8 C 2,1 C 1,6 C 95 % 1022,1 hPa 0,2 l/m 0,00 h 0,00 h 0 W/m 6,7 km/h (2 Bft) 96,37 %
10.12.2019 02:00 3,0 C 2,1 C 1,6 C 96 % 1022,9 hPa 0,0 l/m 0,00 h 0,00 h 0 W/m 4,0 km/h (1 Bft) 96,06 %
10.12.2019 03:00 2,5 C 1,8 C 1,1 C 96 % 1023,8 hPa 0,0 l/m 0,00 h 0,00 h 0 W/m 4,9 km/h (1 Bft) 96,51 %
10.12.2019 04:00 2,9 C 2,4 C 1,9 C 96 % 1024,4 hPa 0,0 l/m 0,00 h 0,00 h 0 W/m 4,6 km/h (1 Bft) 96,74 %
10.12.2019 05:00 2,4 C 1,0 C 0,3 C 96 % 1024,6 hPa 0,0 l/m 0,00 h 0,00 h 0 W/m 0,9 km/h (0 Bft) 97,94 %
10.12.2019 06:00 1,8 C 0,9 C 0,4 C 96 % 1025,1 hPa 0,0 l/m 0,00 h 0,00 h 0 W/m 0,8 km/h (0 Bft) 97,90 %
10.12.2019 07:00 1,4 C 0,4 C -0,4 C 96 % 1025,4 hPa 0,0 l/m 0,00 h 0,00 h 0 W/m 0,5 km/h (0 Bft) 95,74 %
10.12.2019 08:00 1,6 C 1,0 C 0,7 C 97 % 1026,2 hPa 0,0 l/m 0,00 h 0,00 h 13 W/m 8,0 km/h (2 Bft) 98,49 %
10.12.2019 09:00 2,3 C 2,4 C 1,4 C 98 % 1026,4 hPa 0,0 l/m 0,00 h 0,00 h 45 W/m 13,0 km/h (3 Bft) 99,01 %
10.12.2019 10:00 3,1 C 4,5 C 2,7 C 98 % 1026,6 hPa 0,0 l/m 0,53 h 0,00 h 121 W/m 13,7 km/h (3 Bft) 95,39 %
10.12.2019 11:00 4,4 C 6,3 C 3,6 C 96 % 1026,2 hPa 0,0 l/m 0,63 h 0,00 h 167 W/m 17,2 km/h (3 Bft) 96,56 %
10.12.2019 12:00 5,8 C 8,9 C 4,6 C 90 % 1025,5 hPa 0,0 l/m 0,97 h 0,00 h 266 W/m 19,6 km/h (3 Bft) 97,55 %
10.12.2019 13:00 7,0 C 9,4 C 5,6 C 82 % 1024,5 hPa 0,0 l/m 1,00 h 0,00 h 250 W/m 23,3 km/h (4 Bft) 99,37 %
10.12.2019 14:00 6,9 C 7,6 C 5,6 C 78 % 1023,3 hPa 0,0 l/m 0,67 h 0,00 h 155 W/m 21,9 km/h (4 Bft) 96,09 %
10.12.2019 15:00 6,3 C 5,7 C 4,8 C 79 % 1022,2 hPa 0,0 l/m 0,00 h 0,00 h 42 W/m 19,4 km/h (3 Bft) 98,32 %
10.12.2019 16:00 5,5 C 4,7 C 4,0 C 80 % 1021,4 hPa 0,0 l/m 0,00 h 0,00 h 9 W/m 14,9 km/h (3 Bft) 97,10 %
10.12.2019 17:00 5,0 C 4,2 C 3,3 C 83 % 1020,6 hPa 0,0 l/m 0,00 h 0,00 h 0 W/m 15,1 km/h (3 Bft) 96,30 %
10.12.2019 18:00 4,6 C 3,9 C 3,3 C 82 % 1019,4 hPa 0,0 l/m 0,00 h 0,00 h 0 W/m 19,9 km/h (4 Bft) 97,32 %
10.12.2019 19:00 4,4 C 3,9 C 3,3 C 81 % 1018,7 hPa 0,0 l/m 0,00 h 0,00 h 0 W/m 24,8 km/h (4 Bft) 97,21 %
10.12.2019 20:00 4,3 C 3,7 C 3,1 C 82 % 1017,5 hPa 0,0 l/m 0,00 h 0,00 h 0 W/m 24,6 km/h (4 Bft) 98,07 %
10.12.2019 21:00 4,3 C 3,7 C 3,1 C 83 % 1016,5 hPa 0,0 l/m 0,00 h 0,00 h 0 W/m 27,0 km/h (4 Bft) 97,72 %
10.12.2019 22:00 4,6 C 3,9 C 3,3 C 83 % 1015,3 hPa 0,0 l/m 0,00 h 0,17 h 0 W/m 27,6 km/h (4 Bft) 95,94 %
10.12.2019 23:00 5,0 C 4,6 C 3,9 C 81 % 1014,7 hPa 0,0 l/m 0,00 h 0,00 h 0 W/m 23,3 km/h (4 Bft) 98,93 %
11.12.2019 00:00 5,5 C 5,0 C 4,2 C 79 % 1014,1 hPa 0,0 l/m 0,00 h 0,00 h 0 W/m 24,1 km/h (4 Bft) 97,19 %
11.12.2019 01:00 5,5 C 4,9 C 4,3 C 79 % 1013,5 hPa 0,0 l/m 0,00 h 0,00 h 0 W/m 22,6 km/h (4 Bft) 94,66 %
11.12.2019 02:00 5,3 C 4,3 C 3,8 C 82 % 1012,8 hPa 0,0 l/m 0,00 h 0,00 h 0 W/m 22,0 km/h (4 Bft) 99,57 %
11.12.2019 03:00 4,5 C 2,9 C 2,4 C 90 % 1012,6 hPa 0,6 l/m 0,00 h 0,53 h 0 W/m 22,1 km/h (4 Bft) 97,79 %
11.12.2019 04:00 3,8 C 2,8 C 2,2 C 95 % 1011,9 hPa 0,8 l/m 0,00 h 0,50 h 0 W/m 22,2 km/h (4 Bft) 96,52 %
11.12.2019 05:00 3,8 C 3,0 C 2,6 C 97 % 1011,3 hPa 0,2 l/m 0,00 h 0,30 h 0 W/m 20,4 km/h (4 Bft) 98,29 %
11.12.2019 06:00 4,0 C 3,3 C 2,8 C 98 % 1011,0 hPa 0,6 l/m 0,00 h 0,83 h 0 W/m 17,6 km/h (3 Bft) 96,43 %
11.12.2019 07:00 4,2 C 3,3 C 2,9 C 98 % 1010,7 hPa 1,6 l/m 0,00 h 1,00 h 0 W/m 13,5 km/h (3 Bft) 98,79 %
11.12.2019 08:00 4,4 C 3,9 C 3,3 C 99 % 1010,3 hPa 1,2 l/m 0,00 h 1,00 h 0 W/m 11,2 km/h (2 Bft) 97,29 %
11.12.2019 09:00 4,5 C 3,9 C 3,3 C 99 % 1010,0 hPa 1,0 l/m 0,00 h 1,00 h 8 W/m 10,8 km/h (2 Bft) 95,58 %
11.12.2019 10:00 4,6 C 3,9 C 3,3 C 99 % 1009,7 hPa 1,0 l/m 0,00 h 1,00 h 18 W/m 12,1 km/h (2 Bft) 97,74 %
11.12.2019 11:00 4,7 C 3,9 C 3,5 C 99 % 1009,1 hPa 1,0 l/m 0,00 h 1,00 h 18 W/m 8,1 km/h (2 Bft) 95,10 %
11.12.2019 12:00 4,9 C 4,4 C 4,0 C 100 % 1008,3 hPa 0,8 l/m 0,00 h 0,97 h 32 W/m 3,1 km/h (1 Bft) 95,95 %
11.12.2019 13:00 5,3 C 4,5 C 4,4 C 100 % 1007,4 hPa 0,2 l/m 0,00 h 0,77 h 51 W/m 6,0 km/h (2 Bft) 99,08 %
11.12.2019 14:00 5,2 C 4,4 C 4,0 C 100 % 1006,8 hPa 0,2 l/m 0,00 h 0,13 h 23 W/m 7,5 km/h (2 Bft) 96,52 %
11.12.2019 15:00 5,0 C 4,4 C 3,9 C 100 % 1006,5 hPa 0,0 l/m 0,00 h 0,00 h 19 W/m 6,2 km/h (2 Bft) 95,25 %
11.12.2019 16:00 4,8 C 3,9 C 3,4 C 100 % 1006,1 hPa 0,0 l/m 0,00 h 0,00 h 10 W/m 6,0 km/h (2 Bft) 97,13 %
11.12.2019 17:00 4,6 C 3,9 C 3,3 C 100 % 1006,1 hPa 0,0 l/m 0,00 h 0,00 h 0 W/m 4,1 km/h (1 Bft) 95,08 %
11.12.2019 18:00 4,5 C 3,7 C 3,2 C 100 % 1005,9 hPa 0,0 l/m 0,00 h 0,00 h 0 W/m 2,7 km/h (1 Bft) 97,73 %
11.12.2019 19:00 4,2 C 3,3 C 2,8 C 100 % 1005,8 hPa 0,0 l/m 0,00 h 0,00 h 0 W/m 2,5 km/h (1 Bft) 96,99 %
11.12.2019 20:00 4,0 C 3,3 C 2,8 C 99 % 1005,6 hPa 0,0 l/m 0,00 h 0,00 h 0 W/m 5,2 km/h (1 Bft) 97,15 %
11.12.2019 21:00 4,0 C 3,3 C 2,8 C 100 % 1005,4 hPa 0,0 l/m 0,00 h 0,00 h 0 W/m 5,9 km/h (2 Bft) 98,43 %
11.12.2019 22:00 3,9 C 3,3 C 2,5 C 99 % 1005,0 hPa 0,0 l/m 0,00 h 0,00 h 0 W/m 6,9 km/h (2 Bft) 95,80 %
11.12.2019 23:00 3,5 C 2,8 C 2,0 C 99 % 1004,7 hPa 0,0 l/m 0,00 h 0,00 h 0 W/m 3,4 km/h (1 Bft) 96,09 %
12.12.2019 00:00 3,1 C 2,6 C 1,7 C 99 % 1004,3 hPa 0,0 l/m 0,00 h 0,00 h 0 W/m 2,9 km/h (1 Bft) 98,79 %
12.12.2019 01:00 3,0 C 2,7 C 1,9 C 99 % 1004,1 hPa 0,0 l/m 0,00 h 0,00 h 0 W/m 5,6 km/h (1 Bft) 94,53 %
12.12.2019 02:00 3,2 C 2,9 C 1,9 C 99 % 1003,6 hPa 0,0 l/m 0,00 h 0,00 h 0 W/m 5,0 km/h (1 Bft) 98,17 %
12.12.2019 03:00 3,5 C 3,5 C 2,4 C 99 % 1003,3 hPa 0,0 l/m 0,00 h 0,00 h 0 W/m 3,2 km/h (1 Bft) 95,96 %
12.12.2019 04:00 4,0 C 3,9 C 2,8 C 99 % 1003,0 hPa 0,0 l/m 0,00 h 0,00 h 0 W/m 3,0 km/h (1 Bft) 95,12 %
12.12.2019 05:00 4,3 C 4,0 C 3,2 C 99 % 1002,9 hPa 0,0 l/m 0,00 h 0,00 h 0 W/m 6,3 km/h (2 Bft) 97,88 %
12.12.2019 06:00 4,5 C 3,9 C 3,3 C 99 % 1002,8 hPa 0,0 l/m 0,00 h 0,00 h 0 W/m 5,6 km/h (1 Bft) 97,65 %
12.12.2019 07:00 4,6 C 4,1 C 3,3 C 99 % 1002,9 hPa 0,0 l/m 0,00 h 0,00 h 0 W/m 12,3 km/h (3 Bft) 98,15 %
12.12.2019 08:00 4,5 C 3,9 C 3,3 C 98 % 1003,0 hPa 0,0 l/m 0,00 h 0,00 h 8 W/m 8,0 km/h (2 Bft) 95,95 %
12.12.2019 09:00 4,4 C 4,3 C 3,6 C 97 % 1003,1 hPa 0,0 l/m 0,07 h 0,00 h 47 W/m 13,9 km/h (3 Bft) 96,62 %
12.12.2019 10:00 4,5 C 4,9 C 3,6 C 95 % 1003,0 hPa 0,0 l/m 0,23 h 0,00 h 84 W/m 15,0 km/h (3 Bft) 97,82 %
12.12.2019 11:00 5,1 C 7,4 C 4,0 C 90 % 1002,5 hPa 0,0 l/m 0,80 h 0,00 h 212 W/m 21,3 km/h (4 Bft) 97,66 %
12.12.2019 12:00 6,1 C 8,5 C 4,6 C 86 % 1001,5 hPa 0,0 l/m 0,90 h 0,00 h 259 W/m 22,1 km/h (4 Bft) 98,73 %
12.12.2019 13:00 6,8 C 8,3 C 5,3 C 81 % 1000,4 hPa 0,0 l/m 0,67 h 0,00 h 203 W/m 24,7 km/h (4 Bft) 97,72 %
12.12.2019 14:00 6,5 C 7,2 C 5,0 C 79 % 999,4 hPa 0,0 l/m 0,67 h 0,00 h 142 W/m 25,1 km/h (4 Bft) 97,24 %
12.12.2019 15:00 5,9 C 5,3 C 4,3 C 80 % 998,3 hPa 0,0 l/m 0,00 h 0,00 h 33 W/m 22,2 km/h (4 Bft) 96,15 %
12.12.2019 16:00 5,0 C 4,0 C 3,4 C 81 % 997,1 hPa 0,0 l/m 0,00 h 0,00 h 8 W/m 18,1 km/h (3 Bft) 97,08 %
12.12.2019 17:00 4,5 C 3,9 C 3,2 C 82 % 995,8 hPa 0,0 l/m 0,00 h 0,00 h 0 W/m 24,5 km/h (4 Bft) 99,31 %
12.12.2019 18:00 4,3 C 3,8 C 3,0 C 83 % 994,3 hPa 0,0 l/m 0,00 h 0,03 h 0 W/m 30,8 km/h (5 Bft) 96,90 %
12.12.2019 19:00 4,3 C 3,9 C 3,2 C 84 % 992,7 hPa 0,0 l/m 0,00 h 0,00 h 0 W/m 36,9 km/h (5 Bft) 95,99 %
12.12.2019 20:00 4,4 C 3,9 C 3,3 C 84 % 991,3 hPa 0,0 l/m 0,00 h 0,00 h 0 W/m 37,5 km/h (5 Bft) 98,29 %
12.12.2019 21:00 4,2 C 3,4 C 2,8 C 84 % 989,7 hPa 0,0 l/m 0,00 h 0,00 h 0 W/m 32,6 km/h (5 Bft) 97,30 %
12.12.2019 22:00 4,0 C 3,3 C 2,8 C 84 % 988,0 hPa 0,0 l/m 0,00 h 0,00 h 0 W/m 32,1 km/h (5 Bft) 96,77 %
12.12.2019 23:00 3,8 C 3,3 C 2,7 C 85 % 986,4 hPa 0,0 l/m 0,00 h 0,00 h 0 W/m 35,8 km/h (5 Bft) 96,15 %
13.12.2019 00:00 3,7 C 2,8 C 2,1 C 85 % 984,6 hPa 0,2 l/m 0,00 h 0,37 h 0 W/m 34,5 km/h (5 Bft) 96,47 %
13.12.2019 01:00 3,4 C 1,8 C 1,2 C 87 % 982,6 hPa 0,4 l/m 0,00 h 1,00 h 0 W/m 35,0 km/h (5 Bft) 98,15 %
13.12.2019 02:00 3,5 C 1,9 C 1,4 C 86 % 980,8 hPa 0,0 l/m 0,00 h 0,63 h 0 W/m 35,4 km/h (5 Bft) 94,80 %
13.12.2019 03:00 3,1 C 1,5 C 1,3 C 89 % 979,4 hPa 0,0 l/m 0,00 h 0,97 h 0 W/m 35,5 km/h (5 Bft) 98,01 %
13.12.2019 04:00 2,8 C 1,2 C 1,0 C 91 % 977,9 hPa 0,4 l/m 0,00 h 0,90 h 0 W/m 34,6 km/h (5 Bft) 96,75 %
13.12.2019 05:00 2,7 C 1,5 C 1,1 C 93 % 976,4 hPa 0,2 l/m 0,00 h 0,23 h 0 W/m 31,0 km/h (5 Bft) 93,55 %
13.12.2019 06:00 2,9 C 1,8 C 1,1 C 93 % 975,1 hPa 0,0 l/m 0,00 h 0,73 h 0 W/m 29,4 km/h (5 Bft) 97,72 %
13.12.2019 07:00 3,1 C 1,7 C 1,1 C 93 % 974,5 hPa 1,2 l/m 0,00 h 1,00 h 0 W/m 26,3 km/h (4 Bft) 96,73 %
13.12.2019 08:00 2,9 C 1,7 C 1,1 C 95 % 974,0 hPa 0,8 l/m 0,00 h 1,00 h 4 W/m 32,2 km/h (5 Bft) 98,08 %
13.12.2019 09:00 2,9 C 2,0 C 1,6 C 96 % 974,1 hPa 0,4 l/m 0,00 h 1,00 h 15 W/m 28,1 km/h (4 Bft) 98,86 %
13.12.2019 10:00 3,3 C 2,2 C 1,9 C 97 % 974,4 hPa 0,2 l/m 0,00 h 0,77 h 30 W/m 26,4 km/h (4 Bft) 92,97 %
13.12.2019 11:00 3,4 C 2,8 C 2,2 C 97 % 974,9 hPa 0,4 l/m 0,00 h 0,73 h 26 W/m 21,2 km/h (4 Bft) 99,43 %
13.12.2019 12:00 3,8 C 3,2 C 2,7 C 98 % 975,3 hPa 0,4 l/m 0,00 h 0,70 h 32 W/m 11,1 km/h (2 Bft) 98,53 %
13.12.2019 13:00 4,7 C 4,2 C 3,8 C 99 % 976,0 hPa 0,4 l/m 0,00 h 0,90 h 44 W/m 6,4 km/h (2 Bft) 95,16 %
13.12.2019 14:00 5,6 C 5,0 C 4,4 C 99 % 977,0 hPa 0,4 l/m 0,00 h 1,00 h 26 W/m 3,8 km/h (1 Bft) 99,43 %
13.12.2019 15:00 5,7 C 4,7 C 4,3 C 99 % 978,5 hPa 0,2 l/m 0,00 h 0,97 h 7 W/m 11,7 km/h (2 Bft) 97,01 %
13.12.2019 16:00 4,6 C 3,4 C 3,3 C 99 % 980,7 hPa 0,6 l/m 0,00 h 1,00 h 0 W/m 19,3 km/h (3 Bft) 96,58 %
13.12.2019 17:00 4,4 C 3,6 C 3,3 C 99 % 982,5 hPa 0,6 l/m 0,00 h 0,97 h 0 W/m 10,0 km/h (2 Bft) 98,36 %
13.12.2019 18:00 4,9 C 4,3 C 3,8 C 99 % 983,6 hPa 0,2 l/m 0,00 h 0,30 h 0 W/m 7,9 km/h (2 Bft) 96,73 %
13.12.2019 19:00 5,8 C 5,0 C 4,4 C 100 % 984,8 hPa 0,0 l/m 0,00 h 0,10 h 0 W/m 13,2 km/h (3 Bft) 98,01 %
13.12.2019 20:00 5,8 C 5,0 C 4,4 C 99 % 985,8 hPa 0,0 l/m 0,00 h 0,10 h 0 W/m 17,3 km/h (3 Bft) 96,79 %
13.12.2019 21:00 5,7 C 4,5 C 4,0 C 99 % 986,1 hPa 0,0 l/m 0,00 h 0,33 h 0 W/m 14,0 km/h (3 Bft) 97,44 %
13.12.2019 22:00 5,4 C 4,8 C 3,9 C 97 % 986,2 hPa 0,0 l/m 0,00 h 0,00 h 0 W/m 14,4 km/h (3 Bft) 99,00 %
13.12.2019 23:00 5,5 C 5,0 C 3,9 C 95 % 985,9 hPa 0,0 l/m 0,00 h 0,00 h 0 W/m 21,2 km/h (4 Bft) 95,87 %
14.12.2019 00:00 5,5 C 4,9 C 4,0 C 93 % 985,7 hPa 0,0 l/m 0,00 h 0,00 h 0 W/m 20,2 km/h (4 Bft) 97,16 %
14.12.2019 01:00 5,5 C 5,0 C 4,4 C 92 % 985,2 hPa 0,0 l/m 0,00 h 0,00 h 0 W/m 19,5 km/h (3 Bft) 99,07 %
14.12.2019 02:00 5,6 C 5,0 C 4,4 C 91 % 984,7 hPa 0,0 l/m 0,00 h 0,00 h 0 W/m 17,1 km/h (3 Bft) 97,29 %
14.12.2019 03:00 5,5 C 4,4 C 3,8 C 91 % 983,6 hPa 0,4 l/m 0,00 h 0,50 h 0 W/m 16,4 km/h (3 Bft) 96,84 %
14.12.2019 04:00 5,1 C 3,3 C 3,3 C 94 % 982,4 hPa 2,6 l/m 0,00 h 1,00 h 0 W/m 5,1 km/h (1 Bft) 97,51 %
14.12.2019 05:00 4,5 C 3,3 C 2,8 C 96 % 981,2 hPa 1,6 l/m 0,00 h 0,70 h 0 W/m 12,0 km/h (2 Bft) 98,15 %
14.12.2019 06:00 4,3 C 3,3 C 2,8 C 97 % 981,9 hPa 0,4 l/m 0,00 h 0,57 h 0 W/m 6,8 km/h (2 Bft) 96,02 %
14.12.2019 07:00 4,1 C 3,2 C 2,8 C 98 % 984,9 hPa 0,2 l/m 0,00 h 0,47 h 0 W/m 13,5 km/h (3 Bft) 98,01 %
14.12.2019 08:00 4,6 C 3,9 C 3,3 C 99 % 987,6 hPa 0,0 l/m 0,00 h 0,00 h 11 W/m 20,3 km/h (4 Bft) 98,43 %
14.12.2019 09:00 4,9 C 4,2 C 3,4 C 98 % 989,0 hPa 0,2 l/m 0,13 h 0,20 h 30 W/m 19,8 km/h (4 Bft) 93,54 %
14.12.2019 10:00 5,1 C 4,1 C 3,6 C 97 % 990,5 hPa 0,4 l/m 0,00 h 0,97 h 26 W/m 20,7 km/h (4 Bft) 98,65 %
14.12.2019 11:00 4,7 C 3,7 C 3,2 C 96 % 992,0 hPa 0,8 l/m 0,03 h 0,67 h 65 W/m 20,5 km/h (4 Bft) 96,27 %
14.12.2019 12:00 5,6 C 6,0 C 4,2 C 96 % 992,9 hPa 0,2 l/m 0,57 h 0,00 h 175 W/m 23,2 km/h (4 Bft) 96,24 %
14.12.2019 13:00 6,6 C 6,5 C 4,4 C 87 % 993,5 hPa 0,0 l/m 0,17 h 0,00 h 116 W/m 21,9 km/h (4 Bft) 98,79 %
14.12.2019 14:00 6,9 C 6,2 C 4,6 C 85 % 993,6 hPa 0,2 l/m 0,00 h 0,40 h 33 W/m 25,3 km/h (4 Bft) 96,30 %
14.12.2019 15:00 6,4 C 4,5 C 4,0 C 91 % 993,7 hPa 0,8 l/m 0,00 h 1,00 h 8 W/m 29,2 km/h (5 Bft) 97,08 %
14.12.2019 16:00 6,0 C 4,6 C 4,2 C 95 % 993,8 hPa 1,2 l/m 0,00 h 0,83 h 2 W/m 29,7 km/h (5 Bft) 98,22 %
14.12.2019 17:00 5,9 C 4,5 C 4,0 C 92 % 995,1 hPa 0,0 l/m 0,00 h 0,00 h 0 W/m 31,1 km/h (5 Bft) 95,87 %
14.12.2019 18:00 5,8 C 4,8 C 3,4 C 85 % 996,9 hPa 0,0 l/m 0,00 h 0,00 h 0 W/m 26,4 km/h (4 Bft) 99,26 %
14.12.2019 19:00 5,7 C 5,0 C 3,4 C 84 % 998,2 hPa 0,0 l/m 0,00 h 0,00 h 0 W/m 21,5 km/h (4 Bft) 94,80 %
14.12.2019 20:00 5,5 C 4,7 C 3,9 C 85 % 999,1 hPa 0,0 l/m 0,00 h 0,00 h 0 W/m 17,6 km/h (3 Bft) 94,88 %
14.12.2019 21:00 5,4 C 4,7 C 3,9 C 86 % 999,5 hPa 0,0 l/m 0,00 h 0,00 h 0 W/m 16,3 km/h (3 Bft) 99,50 %
14.12.2019 22:00 5,7 C 5,3 C 4,3 C 88 % 999,9 hPa 0,0 l/m 0,00 h 0,00 h 0 W/m 17,4 km/h (3 Bft) 95,44 %
14.12.2019 23:00 5,9 C 5,3 C 4,4 C 88 % 999,4 hPa 0,0 l/m 0,00 h 0,00 h 0 W/m 14,4 km/h (3 Bft) 97,94 %
15.12.2019 00:00 6,2 C 5,6 C 5,0 C 90 % 998,7 hPa 0,0 l/m 0,00 h 0,00 h 0 W/m 19,3 km/h (3 Bft) 99,27 %
15.12.2019 01:00 6,1 C 5,5 C 4,5 C 89 % 997,1 hPa 0,0 l/m 0,00 h 0,00 h 0 W/m 22,0 km/h (4 Bft) 95,72 %
15.12.2019 02:00 6,1 C 5,6 C 4,8 C 90 % 996,0 hPa 0,0 l/m 0,00 h 0,07 h 0 W/m 26,1 km/h (4 Bft) 98,16 %
15.12.2019 03:00 6,2 C 4,7 C 4,2 C 93 % 994,6 hPa 0,8 l/m 0,00 h 0,40 h 0 W/m 26,6 km/h (4 Bft) 97,83 %
15.12.2019 04:00 6,5 C 5,9 C 5,0 C 96 % 993,4 hPa 0,0 l/m 0,00 h 0,27 h 0 W/m 20,3 km/h (4 Bft) 97,08 %
15.12.2019 05:00 8,3 C 7,4 C 6,7 C 98 % 992,7 hPa 0,4 l/m 0,00 h 0,50 h 0 W/m 24,8 km/h (4 Bft) 97,36 %
15.12.2019 06:00 9,4 C 7,9 C 7,1 C 94 % 993,2 hPa 2,6 l/m 0,00 h 0,37 h 0 W/m 39,3 km/h (6 Bft) 97,44 %
15.12.2019 07:00 7,4 C 5,6 C 5,1 C 93 % 995,4 hPa 0,6 l/m 0,00 h 1,00 h 0 W/m 23,4 km/h (4 Bft) 97,79 %
15.12.2019 08:00 7,1 C 5,7 C 5,0 C 93 % 996,5 hPa 0,0 l/m 0,00 h 0,23 h 7 W/m 22,8 km/h (4 Bft) 95,66 %
15.12.2019 09:00 7,5 C 6,4 C 5,5 C 92 % 998,3 hPa 0,2 l/m 0,00 h 0,00 h 35 W/m 25,0 km/h (4 Bft) 96,24 %
15.12.2019 10:00 7,8 C 8,8 C 5,5 C 87 % 999,8 hPa 0,0 l/m 0,70 h 0,00 h 126 W/m 23,5 km/h (4 Bft) 98,68 %
15.12.2019 11:00 8,3 C 10,2 C 6,1 C 85 % 1000,7 hPa 0,0 l/m 0,83 h 0,00 h 188 W/m 23,6 km/h (4 Bft) 95,49 %
15.12.2019 12:00 9,1 C 11,2 C 7,6 C 82 % 1001,2 hPa 0,0 l/m 1,00 h 0,00 h 240 W/m 29,8 km/h (5 Bft) 99,21 %
15.12.2019 13:00 9,0 C 9,5 C 7,3 C 80 % 1002,0 hPa 0,0 l/m 0,33 h 0,00 h 128 W/m 26,5 km/h (4 Bft) 95,76 %
15.12.2019 14:00 8,9 C 9,1 C 7,4 C 78 % 1002,7 hPa 0,0 l/m 0,43 h 0,00 h 109 W/m 24,3 km/h (4 Bft) 97,34 %
15.12.2019 15:00 8,7 C 8,1 C 7,2 C 75 % 1003,4 hPa 0,0 l/m 0,10 h 0,00 h 42 W/m 24,9 km/h (4 Bft) 98,35 %
15.12.2019 16:00 8,2 C 7,4 C 6,7 C 77 % 1004,2 hPa 0,0 l/m 0,07 h 0,00 h 11 W/m 27,3 km/h (4 Bft) 96,28 %
15.12.2019 17:00 7,7 C 6,8 C 6,1 C 79 % 1004,8 hPa 0,0 l/m 0,00 h 0,00 h 0 W/m 23,9 km/h (4 Bft) 97,42 %
15.12.2019 18:00 7,3 C 6,5 C 5,7 C 79 % 1005,6 hPa 0,0 l/m 0,00 h 0,00 h 0 W/m 22,7 km/h (4 Bft) 97,94 %
15.12.2019 19:00 6,8 C 6,1 C 5,2 C 79 % 1006,3 hPa 0,0 l/m 0,00 h 0,00 h 0 W/m 19,9 km/h (4 Bft) 95,51 %
15.12.2019 20:00 6,5 C 5,6 C 4,9 C 81 % 1007,2 hPa 0,0 l/m 0,00 h 0,00 h 0 W/m 19,3 km/h (3 Bft) 98,65 %
15.12.2019 21:00 5,8 C 4,6 C 3,9 C 82 % 1007,6 hPa 0,0 l/m 0,00 h 0,00 h 0 W/m 12,8 km/h (3 Bft) 95,09 %
15.12.2019 22:00 4,9 C 3,8 C 3,1 C 85 % 1007,7 hPa 0,0 l/m 0,00 h 0,00 h 0 W/m 12,9 km/h (3 Bft) 98,65 %
15.12.2019 23:00 4,3 C 3,5 C 2,7 C 86 % 1007,8 hPa 0,0 l/m 0,00 h 0,00 h 0 W/m 13,6 km/h (3 Bft) 99,07 %
Min-Datum _ 10.12.19 10.12.19 10.12.19 15.12.19 13.12.19 - - - - 09.12.19 15.12.19
_ Min-Zeit 07:32 07:00 05:22 15:16 08:40 - - - - 15:00 11:24
Minimum _ 1,3 C 0,0 C -0,6 C 75 % 973,9 hPa - - - - 0,0 km/h (0 Bft) 47,37 %
Max-Datum _ 15.12.19 15.12.19 15.12.19 11.12.19 10.12.19 09.12.19 14.12.19 13.12.19 12.12.19 09.12.19 09.12.19
_ Max-Zeit 06:40 12:36 06:04 11:34 09:58 10:04 12:08 04:05 12:54 09:20 00:00
Maximum _ 10,3 C 12,2 C 7,8 C 100 % 1026,8 hPa 2,8 l/m 0,07 h 0,08 h 327 W/m 77,2 km/h
S-SO (9 Bft)
100,00 %
Durchschnitt _ 5,2 C 4,6 C 3,7 C 92 % 1000,6 hPa #38,4 l/m #12:10 h #41:48 h 71 W/m 18,0 km/h (3 Bft) 97,18 %
© 2019 W. Hausmann